Regional Weather Roundup
Issued by NWS Kansas City/Pleasant Hill, MO

Home | Current Version | Previous Version | Graphics & Text | Print | Product List | Glossary Off
Versions: 1 2 3 4 5 6 7 8 9 10 11 12 13 14 15 16 17 18 19 20 21 22 23 24 25 26 27 28 29 30 31 32 33 34 35 36 37 38 39 40 41 42 43 44 45 46 47 48 49 50

148
ASUS43 KEAX 271410
RWREAX

WEATHER ROUNDUP FOR EASTERN KANSAS AND NORTHWEST MISSOURI
NATIONAL WEATHER SERVICE KANSAS CITY/PLEASANT HILL MO
900 AM CDT THU APR 27 2017

KSZ040-057-103>105-MOZ028-029-037-043-271500-
...KANSAS CITY METROPOLITAN AREA...

CITY           SKY/WX    TMP DP  RH WIND       PRES   REMARKS
K.C. INTL      MOSUNNY   47  34  60 W9        29.73R
K.C. DOWNTOWN  MOSUNNY   48  33  56 W9        29.74R
LEES SUMMIT    SUNNY     46  34  62 W13       29.74R
OLATHE - IXD   SUNNY     46  34  62 NW10      29.76R
OLATHE - OJC   SUNNY     45  34  65 W9        29.75R
LAWRENCE       SUNNY     47  35  63 W12       29.76R

$$

MOZ001>008-011>017-020>025-030>033-038>040-044>046-053-054-271500-
...NORTHERN AND CENTRAL MISSOURI...

CITY           SKY/WX    TMP DP  RH WIND       PRES   REMARKS
ST. JOSEPH     PTSUNNY   46  36  68 W10       29.73R
WHITEMAN AFB   PTSUNNY   46  40  82 W10       29.74R
CLINTON        CLOUDY    46  37  71 W8        29.77R
SEDALIA        CLOUDY    46  37  71 W10G21    29.76R
WARSAW         NOT AVBL
CHILLICOTHE      N/A     45  34  65 NW9       29.72R
KIRKSVILLE     CLOUDY    42  35  76 W9        29.68R

$$

MOZ041-047>049-056>058-063>065-088>090-097-271500-
...EASTERN AND SOUTHERN MISSOURI...

CITY           SKY/WX    TMP DP  RH WIND       PRES   REMARKS
ST. LOUIS INTL CLOUDY    48  41  76 W15       29.71R
SPIRIT OF STL  CLOUDY    47  43  86 W12       29.72R
COLUMBIA       CLOUDY    45  39  79 W10       29.73R
JEFFERSON CITY CLOUDY    47  36  65 W14       29.75R
ROLLA          CLOUDY    44  40  85 W12       29.73R
OSAGE BEACH    CLOUDY    45  39  79 VRB7      29.77R
SPRINGFIELD    SUNNY     47  40  76 NW6       29.76S
BRANSON        MOSUNNY   46  39  76 NW9       29.78S
JOPLIN         SUNNY     50  43  77 SW5       29.79R
WEST PLAINS    CLOUDY    47  40  76 NW12      29.77R

$$

IAZ060-094-KSZ022-034>040-054-083-096-NEZ052-066-093-271500-
...KANSAS...SOUTHEAST NEBRASKA AND IOWA...

CITY           SKY/WX    TMP DP  RH WIND       PRES   REMARKS
TOPEKA         SUNNY     46  35  65 W8        29.76R
MANHATTAN      SUNNY     44  36  73 S6        29.77R
EMPORIA        SUNNY     44  38  79 NW3       29.76R
CHANUTE        SUNNY     46  40  79 SW3       29.79R
WICHITA        MOSUNNY   46  38  73 E8        29.77F
OMAHA          CLOUDY    38  29  70 NW13      29.73R WCI  30
LINCOLN        SUNNY     41  30  65 N15       29.74S WCI  33
FALLS CITY     MOSUNNY   44  33  65 NW13      29.72S
LAMONI         CLOUDY    40  31  70 W17       29.67S WCI  31
DES MOINES     CLOUDY    38  29  70 NW16      29.66R WCI  29

$$





USA.gov is the U.S. government's official web portal to all federal, state and local government web resources and services.